| time (UTC) | temp F | wind direction | speed MPH | gust MPH | rain 1hr in | rain 24hr in | rain mn in | humidity % | barometer mb |
| 20260503034532 | 59 | 153 | 3.0 | 7.0 | 0.00 | 0.00 | 0.00 | 27 | 1013.8 |
| 20260503033037 | 60 | 120 | 6.0 | 10.0 | 0.00 | 0.00 | 0.00 | 24 | 1013.8 |
| 20260503031531 | 60 | 130 | 4.0 | 10.0 | 0.00 | 0.00 | 0.00 | 24 | 1013.7 |
| 20260503030041 | 61 | 110 | 3.0 | 8.0 | 0.00 | 0.00 | 0.00 | 23 | 1013.8 |
| 20260503024531 | 62 | 107 | 3.0 | 8.0 | 0.00 | 0.00 | 0.00 | 21 | 1013.5 |
| 20260503023031 | 62 | 119 | 1.0 | 5.0 | 0.00 | 0.00 | 0.00 | 20 | 1013.4 |
| 20260503021529 | 63 | 97 | 3.0 | 7.0 | 0.00 | 0.00 | 0.00 | 19 | 1013.3 |
| 20260503020029 | 64 | 79 | 3.0 | 6.0 | 0.00 | 0.00 | 0.00 | 19 | 1013.2 |
| 20260503014528 | 65 | 84 | 1.0 | 7.0 | 0.00 | 0.00 | 0.00 | 19 | 1013.2 |
| 20260503013032 | 66 | 64 | 3.0 | 8.0 | 0.00 | 0.00 | 0.00 | 18 | 1013.1 |
| 20260503011528 | 66 | 57 | 2.0 | 10.0 | 0.00 | 0.00 | 0.00 | 18 | 1013.0 |
| 20260503010031 | 67 | 76 | 5.0 | 13.0 | 0.00 | 0.00 | 0.00 | 16 | 1013.0 |
| 20260503004526 | 68 | 97 | 6.0 | 14.0 | 0.00 | 0.00 | 0.00 | 16 | 1013.2 |
| 20260503003025 | 68 | 121 | 7.0 | 13.0 | 0.00 | 0.00 | 0.00 | 16 | 1013.2 |
| 20260503001523 | 68 | 117 | 5.0 | 15.0 | 0.00 | 0.00 | 0.00 | 16 | 1013.3 |
| 20260503000021 | 68 | 64 | 7.0 | 11.0 | 0.00 | 0.00 | 0.00 | 16 | 1013.6 |
| 20260502234527 | 68 | 99 | 3.0 | 11.0 | 0.00 | 0.00 | 0.00 | 16 | 1013.7 |
| 20260502233019 | 69 | 117 | 5.0 | 8.0 | 0.00 | 0.00 | 0.00 | 16 | 1013.8 |
| 20260502231518 | 69 | 275 | 0.0 | 11.0 | 0.00 | 0.00 | 0.00 | 17 | 1013.9 |
| 20260502230022 | 69 | 138 | 2.0 | 8.0 | 0.00 | 0.00 | 0.00 | 17 | 1014.1 |
| 20260502224515 | 68 | 1 | 4.0 | 7.0 | 0.00 | 0.00 | 0.00 | 18 | 1014.2 |
| 20260502223014 | 68 | 77 | 3.0 | 9.0 | 0.00 | 0.00 | 0.00 | 18 | 1014.4 |
| 20260502221512 | 69 | 105 | 6.0 | 10.0 | 0.00 | 0.00 | 0.00 | 17 | 1014.6 |
| 20260502220009 | 69 | 252 | 0.0 | 7.0 | 0.00 | 0.00 | 0.00 | 19 | 1015.0 |
| 20260502214506 | 68 | 180 | 5.0 | 9.0 | 0.00 | 0.00 | 0.00 | 18 | 1015.3 |
| 20260502213004 | 68 | 208 | 5.0 | 10.0 | 0.00 | 0.00 | 0.00 | 20 | 1015.5 |
| 20260502211505 | 69 | 163 | 3.0 | 7.0 | 0.00 | 0.00 | 0.00 | 20 | 1015.7 |
| 20260502210115 | 67 | 21 | 3.0 | 9.0 | 0.00 | 0.00 | 0.00 | 20 | 1016.0 |
| 20260502204558 | 67 | 25 | 3.0 | 12.0 | 0.00 | 0.00 | 0.00 | 19 | 1016.4 |
| 20260502203053 | 67 | 244 | 3.0 | 8.0 | 0.00 | 0.00 | 0.00 | 19 | 1016.6 |
| 20260502201553 | 66 | 74 | 5.0 | 11.0 | 0.00 | 0.00 | 0.00 | 21 | 1016.9 |
| 20260502200050 | 66 | 200 | 3.0 | 9.0 | 0.00 | 0.00 | 0.00 | 20 | 1017.2 |
| 20260502194545 | 64 | 109 | 3.0 | 10.0 | 0.00 | 0.00 | 0.00 | 20 | 1017.4 |
| 20260502193043 | 65 | 180 | 4.0 | 9.0 | 0.00 | 0.00 | 0.00 | 20 | 1017.5 |
| 20260502191551 | 64 | 190 | 6.0 | 10.0 | 0.00 | 0.00 | 0.00 | 20 | 1017.8 |
| 20260502190041 | 64 | 206 | 4.0 | 10.0 | 0.00 | 0.00 | 0.00 | 20 | 1017.9 |
| 20260502184547 | 63 | 168 | 7.0 | 14.0 | 0.00 | 0.00 | 0.00 | 20 | 1018.2 |
| 20260502183054 | 63 | 139 | 7.0 | 11.0 | 0.00 | 0.00 | 0.00 | 21 | 1018.5 |
| 20260502181540 | 64 | 112 | 5.0 | 9.0 | 0.00 | 0.00 | 0.00 | 21 | 1018.7 |
| 20260502163016 | 60 | 330 | 5.0 | 9.0 | 0.00 | 0.00 | 0.00 | 24 | 1019.6 |
| 20260502161511 | 59 | 215 | 4.0 | 8.0 | 0.00 | 0.00 | 0.00 | 31 | 1019.6 |
| 20260502151605 | 55 | 253 | 3.0 | 9.0 | 0.00 | 0.00 | 0.00 | 44 | 1020.1 |
| 20260502123025 | 39 | 297 | 2.0 | 6.0 | 0.00 | 0.00 | 0.00 | 73 | 1020.6 |
| 20260502121517 | 39 | 325 | 1.0 | 4.0 | 0.00 | 0.00 | 0.00 | 74 | 1020.6 |
| 20260502114516 | 38 | 294 | 0.0 | 0.0 | 0.00 | 0.00 | 0.00 | 75 | 1020.5 |
| 20260502113015 | 38 | 294 | 0.0 | 0.0 | 0.00 | 0.00 | 0.00 | 75 | 1020.3 |
| 20260502111518 | 39 | 294 | 0.0 | 4.0 | 0.00 | 0.00 | 0.00 | 74 | 1020.4 |
| 20260502110014 | 39 | 294 | 1.0 | 4.0 | 0.00 | 0.00 | 0.00 | 74 | 1020.3 |
| 20260502104511 | 39 | 302 | 2.0 | 5.0 | 0.00 | 0.00 | 0.00 | 74 | 1020.3 |
| 20260502103009 | 39 | 333 | 1.0 | 5.0 | 0.00 | 0.00 | 0.00 | 76 | 1020.3 |
| 20260502101507 | 39 | 296 | 1.0 | 5.0 | 0.00 | 0.00 | 0.00 | 75 | 1020.1 |
| 20260502090113 | 41 | 302 | 0.0 | 3.0 | 0.00 | 0.00 | 0.00 | 75 | 1019.8 |
| 20260502070042 | 42 | 305 | 0.0 | 2.0 | 0.00 | 0.00 | 0.00 | 75 | 1019.7 |
| 20260502064540 | 43 | 305 | 0.0 | 2.0 | 0.00 | 0.00 | 0.00 | 73 | 1019.7 |
| 20260502063038 | 44 | 305 | 1.0 | 6.0 | 0.00 | 0.00 | 0.00 | 73 | 1019.7 |
| 20260502061534 | 44 | 265 | 0.0 | 1.0 | 0.00 | 0.00 | 0.00 | 72 | 1019.7 |
| 20260502060032 | 44 | 265 | 0.0 | 5.0 | 0.00 | 0.01 | 0.00 | 71 | 1019.7 |
| 20260502054532 | 45 | 297 | 0.0 | 4.0 | 0.00 | 0.01 | 0.00 | 70 | 1019.6 |
| 20260502053031 | 44 | 266 | 0.0 | 0.0 | 0.00 | 0.01 | 0.00 | 70 | 1019.4 |
| 20260502051535 | 45 | 266 | 0.0 | 1.0 | 0.00 | 0.01 | 0.00 | 69 | 1019.3 |
| 20260502050037 | 45 | 182 | 0.0 | 1.0 | 0.00 | 0.04 | 0.00 | 71 | 1019.3 |
| 20260502044531 | 45 | 182 | 0.0 | 0.0 | 0.00 | 0.04 | 0.00 | 70 | 1019.3 |
| 20260502043030 | 45 | 182 | 0.0 | 0.0 | 0.00 | 0.04 | 0.00 | 70 | 1019.2 |
| 20260502041542 | 46 | 182 | 0.0 | 0.0 | 0.00 | 0.04 | 0.00 | 67 | 1019.3 |
| 20260502040029 | 47 | 182 | 0.0 | 0.0 | 0.00 | 0.05 | 0.00 | 66 | 1019.3 |